When you browse on this site, cookies collect data to enhance your experience and personalize the content and advertising you see.
Visit our Privacy Policy to learn more. By continuing to use the site, you agree to this use of cookies and data.
  • In Hungary
  • List of Countries
  • For 7 days
  • Water Temperature
  • Satellite Maps
  • Weather Map
  • News
  • Weather Widgets
  • user-avatar
    Login

    Hourly Weather Alcaudete

    Today, 21 April, Sunday

    Time Temperature Precipitation Wind Pressure Humidity
    00:00 +11°C° 0 mm 1 mps 706 mmHg 82%
    01:00 +11°C° 0 mm 1 mps 706 mmHg 83%
    02:00 +11°C° 0 mm 1 mps 705 mmHg 84%
    03:00 +11°C° 0 mm 1 mps 705 mmHg 86%
    04:00 +11°C° 0 mm 1 mps 705 mmHg 86%
    05:00 +11°C° 0 mm 1 mps 704 mmHg 86%
    06:00 +10°C° 0 mm 2 mps 704 mmHg 85%
    07:00 +12°C° 0 mm 2 mps 704 mmHg 80%
    08:00 +13°C° 0 mm 2 mps 704 mmHg 74%
    09:00 +13°C° 0 mm 3 mps 704 mmHg 69%
    10:00 +14°C° 0 mm 3 mps 704 mmHg 64%
    11:00 +16°C° 0 mm 3 mps 704 mmHg 60%
    12:00 +17°C° 0 mm 3 mps 704 mmHg 55%
    13:00 +17°C° 0.1 mm 3 mps 703 mmHg 54%
    14:00 +18°C° 0.1 mm 4 mps 703 mmHg 53%
    15:00 +18°C° 0.1 mm 4 mps 703 mmHg 52%
    16:00 +17°C° 0.1 mm 4 mps 703 mmHg 55%
    17:00 +17°C° 0.1 mm 4 mps 703 mmHg 59%
    18:00 +15°C° 0.1 mm 4 mps 702 mmHg 62%
    19:00 +13°C° 0 mm 3 mps 703 mmHg 67%
    20:00 +12°C° 0 mm 3 mps 703 mmHg 72%
    21:00 +12°C° 0 mm 2 mps 703 mmHg 77%
    22:00 +10°C° 0 mm 2 mps 703 mmHg 80%
    23:00 +10°C° 0 mm 2 mps 702 mmHg 83%

    Tomorrow, 22 April, Monday

    Time Temperature Precipitation Wind Pressure Humidity
    00:00 +10°C° 0 mm 1 mps 702 mmHg 86%
    01:00 +10°C° 0 mm 1 mps 702 mmHg 87%
    02:00 +10°C° 0 mm 1 mps 701 mmHg 89%
    03:00 +10°C° 0 mm 1 mps 701 mmHg 90%
    04:00 +8°C° 0 mm 0 mps 701 mmHg 91%
    05:00 +8°C° 0 mm 0 mps 701 mmHg 92%
    06:00 +8°C° 0 mm 0 mps 701 mmHg 93%
    07:00 +9°C° 0 mm 0 mps 701 mmHg 86%
    08:00 +12°C° 0 mm 1 mps 701 mmHg 79%
    09:00 +14°C° 0 mm 1 mps 702 mmHg 72%
    10:00 +15°C° 0.1 mm 2 mps 701 mmHg 66%
    11:00 +16°C° 0.1 mm 2 mps 701 mmHg 60%
    12:00 +18°C° 0.1 mm 3 mps 701 mmHg 55%
    13:00 +18°C° 0.5 mm 4 mps 701 mmHg 55%
    14:00 +18°C° 0.5 mm 4 mps 700 mmHg 56%
    15:00 +19°C° 0.5 mm 5 mps 700 mmHg 57%
    16:00 +17°C° 1.3 mm 5 mps 700 mmHg 61%
    17:00 +17°C° 1.3 mm 4 mps 700 mmHg 64%
    18:00 +17°C° 1.3 mm 4 mps 699 mmHg 68%
    19:00 +14°C° 0.9 mm 4 mps 700 mmHg 73%
    20:00 +13°C° 0.9 mm 4 mps 700 mmHg 78%
    21:00 +12°C° 0.9 mm 4 mps 700 mmHg 83%
    22:00 +12°C° 0.1 mm 3 mps 700 mmHg 82%
    23:00 +11°C° 0.1 mm 3 mps 700 mmHg 82%

    Day after tomorrow, 23 April, Tuesday

    Time Temperature Precipitation Wind Pressure Humidity
    00:00 +11°C° 0.1 mm 3 mps 700 mmHg 81%
    01:00 +11°C° 0 mm 3 mps 700 mmHg 82%
    02:00 +11°C° 0 mm 3 mps 699 mmHg 82%
    03:00 +10°C° 0 mm 3 mps 699 mmHg 83%
    04:00 +10°C° 1.2 mm 3 mps 699 mmHg 85%
    05:00 +10°C° 1.2 mm 3 mps 699 mmHg 87%
    06:00 +10°C° 1.2 mm 3 mps 699 mmHg 89%
    07:00 +10°C° 1.9 mm 3 mps 699 mmHg 89%
    08:00 +10°C° 1.9 mm 3 mps 700 mmHg 89%
    09:00 +9°C° 1.9 mm 3 mps 701 mmHg 90%
    10:00 +10°C° 0.1 mm 3 mps 701 mmHg 80%
    11:00 +11°C° 0.1 mm 3 mps 701 mmHg 71%
    12:00 +12°C° 0.1 mm 4 mps 702 mmHg 61%
    13:00 +12°C° 0 mm 4 mps 701 mmHg 57%
    14:00 +13°C° 0 mm 5 mps 701 mmHg 54%
    15:00 +14°C° 0 mm 5 mps 701 mmHg 50%
    16:00 +13°C° 0 mm 5 mps 701 mmHg 52%
    17:00 +13°C° 0 mm 5 mps 702 mmHg 53%
    18:00 +12°C° 0 mm 5 mps 702 mmHg 55%
    19:00 +11°C° 0 mm 4 mps 702 mmHg 62%
    20:00 +8°C° 0 mm 4 mps 703 mmHg 68%
    21:00 +7°C° 0 mm 4 mps 704 mmHg 75%
    22:00 +8°C° 0 mm 3 mps 704 mmHg 78%
    23:00 +7°C° 0 mm 3 mps 704 mmHg 80%

    24 April, Wednesday

    Time Temperature Precipitation Wind Pressure Humidity
    00:00 +7°C° 0 mm 2 mps 705 mmHg 83%
    01:00 +7°C° 0 mm 2 mps 705 mmHg 84%
    02:00 +6°C° 0 mm 2 mps 705 mmHg 86%
    03:00 +6°C° 0 mm 2 mps 705 mmHg 87%
    04:00 +6°C° 0 mm 2 mps 705 mmHg 87%
    05:00 +6°C° 0 mm 2 mps 705 mmHg 87%
    06:00 +6°C° 0 mm 2 mps 705 mmHg 87%
    07:00 +7°C° 0 mm 2 mps 706 mmHg 79%
    08:00 +9°C° 0 mm 2 mps 706 mmHg 71%
    09:00 +12°C° 0 mm 2 mps 707 mmHg 64%
    10:00 +12°C° 0 mm 3 mps 707 mmHg 61%
    11:00 +13°C° 0 mm 3 mps 707 mmHg 58%
    12:00 +15°C° 0 mm 4 mps 707 mmHg 55%
    13:00 +14°C° 0.1 mm 4 mps 707 mmHg 58%
    14:00 +14°C° 0.1 mm 5 mps 707 mmHg 60%
    15:00 +14°C° 0.1 mm 5 mps 707 mmHg 63%
    16:00 +14°C° 0.1 mm 5 mps 707 mmHg 67%
    17:00 +13°C° 0.1 mm 4 mps 707 mmHg 70%
    18:00 +13°C° 0.1 mm 4 mps 707 mmHg 74%
    19:00 +12°C° 0 mm 3 mps 707 mmHg 79%
    20:00 +12°C° 0 mm 2 mps 708 mmHg 84%
    21:00 +10°C° 0 mm 2 mps 708 mmHg 89%
    22:00 +9°C° 0 mm 2 mps 708 mmHg 89%
    23:00 +9°C° 0 mm 2 mps 708 mmHg 89%

    25 April, Thursday

    Time Temperature Precipitation Wind Pressure Humidity
    00:00 +9°C° 0 mm 2 mps 708 mmHg 89%
    01:00 +9°C° 0 mm 2 mps 708 mmHg 87%
    02:00 +9°C° 0 mm 2 mps 708 mmHg 85%
    03:00 +10°C° 0 mm 2 mps 708 mmHg 83%
    04:00 +10°C° 0 mm 2 mps 708 mmHg 82%
    05:00 +10°C° 0 mm 2 mps 709 mmHg 81%
    06:00 +10°C° 0 mm 2 mps 709 mmHg 80%
    07:00 +12°C° 0.1 mm 2 mps 709 mmHg 78%
    08:00 +12°C° 0.1 mm 2 mps 710 mmHg 77%
    09:00 +13°C° 0.1 mm 1 mps 711 mmHg 76%
    10:00 +14°C° 0 mm 2 mps 711 mmHg 77%
    11:00 +14°C° 0 mm 2 mps 711 mmHg 78%
    12:00 +14°C° 0 mm 3 mps 711 mmHg 79%
    13:00 +16°C° 0 mm 3 mps 711 mmHg 73%
    14:00 +17°C° 0 mm 3 mps 711 mmHg 67%
    15:00 +18°C° 0 mm 3 mps 712 mmHg 62%
    16:00 +18°C° 0 mm 3 mps 712 mmHg 64%
    17:00 +17°C° 0 mm 2 mps 712 mmHg 66%
    18:00 +17°C° 0 mm 2 mps 712 mmHg 68%
    19:00 +15°C° 0 mm 1 mps 712 mmHg 74%
    20:00 +14°C° 0 mm 1 mps 713 mmHg 80%
    21:00 +11°C° 0 mm 0 mps 713 mmHg 86%
    22:00 +11°C° 0 mm 0 mps 713 mmHg 87%
    23:00 +11°C° 0 mm 0 mps 713 mmHg 88%

    26 April, Friday

    Time Temperature Precipitation Wind Pressure Humidity
    00:00 +10°C° 0 mm 0 mps 713 mmHg 89%
    01:00 +10°C° 0 mm 0 mps 713 mmHg 90%
    02:00 +11°C° 0 mm 1 mps 713 mmHg 91%
    03:00 +10°C° 0 mm 1 mps 713 mmHg 92%
    04:00 +10°C° 0 mm 1 mps 713 mmHg 92%
    05:00 +10°C° 0 mm 1 mps 713 mmHg 92%
    06:00 +10°C° 0 mm 1 mps 713 mmHg 93%
    07:00 +13°C° 0 mm 2 mps 714 mmHg 82%
    08:00 +15°C° 0 mm 2 mps 714 mmHg 72%
    09:00 +17°C° 0 mm 2 mps 715 mmHg 62%
    10:00 +19°C° 0 mm 2 mps 715 mmHg 55%
    11:00 +22°C° 0 mm 1 mps 715 mmHg 48%
    12:00 +24°C° 0 mm 1 mps 715 mmHg 41%
    13:00 +25°C° 0 mm 1 mps 715 mmHg 40%
    14:00 +26°C° 0 mm 1 mps 714 mmHg 39%
    15:00 +26°C° 0 mm 2 mps 714 mmHg 37%
    16:00 +26°C° 0 mm 2 mps 714 mmHg 41%
    17:00 +25°C° 0 mm 1 mps 714 mmHg 45%
    18:00 +24°C° 0 mm 1 mps 714 mmHg 49%
    19:00 +22°C° 0 mm 1 mps 714 mmHg 53%
    20:00 +20°C° 0 mm 1 mps 714 mmHg 58%
    21:00 +18°C° 0 mm 1 mps 714 mmHg 62%
    22:00 +18°C° 0 mm 1 mps 714 mmHg 65%
    23:00 +16°C° 0 mm 1 mps 714 mmHg 67%
    Show more